Challenge JP Guerit

Le Jogging Des Venelles - Baileux (6.20 km)

samedi 04 septembre 2021

Le classement original se trouve sur : http://www.challenge-guerit.be/
 
CHALLENGE JP GUERIT
LE JOGGING DES VENELLES - BAILEUX
DISTANCE 6.20 km
samedi 04 septembre 2021
 
Place
finish
dos NOM Equipe Catég. Place
catégorie
Temps Temps/km Vitesse
1 525 JOLY FLORENTIN LA THURE SCH 1 00:23:56 03:52 15.54
2 523 RIFFLART MATHIEU JTRR ADH 1 00:26:02 04:12 14.29
3 511 LECOHIER CORENTIN CCSTC ADH 2 00:26:11 04:13 14.21
4 538 SCHMITZTEAMFB DELPHINE TEAM FB ADF 1 00:26:12 04:14 14.20
5 558 DE PESTEL BLAISE VAULX ADH 3 00:26:29 04:16 14.05
6 552 BUISSET FLORENTIN BAILEUX CAD G 1 00:28:20 04:34 13.13
7 522 BLEQUIT ALEX ACCO XXX   00:28:28 04:35 13.07
8 542 HUART OLIVIER LA THURE ADH 4 00:29:03 04:41 12.81
9 559 VANDERHEYDEN CLÉMENT JACO XXX   00:29:49 04:49 12.48
10 515 MEIGNANT HADRIEN H&K TEAM ADH 5 00:29:51 04:49 12.46
11 551 POTY FRANCIS JC GERMINALT MH 1 00:30:36 04:56 12.16
12 546 MICHEL JOSUA JACO XXX   00:30:38 04:56 12.14
13 513 LERNOUT MATTHIAS JACO CAD G 2 00:30:50 04:58 12.06
14 557 SEINGIER OLIVIER - ADH 6 00:31:47 05:08 11.70
15 530 CAMUS DENIS - MH 2 00:32:12 05:12 11.55
16 526 LEJEUNE PHILIPPE JACO MH 3 00:32:19 05:13 11.51
17 541 LELEU MAGALI CCSTC ADF 2 00:32:21 05:13 11.50
18 533 BOUYARD LUCAS JACO CAD G 3 00:32:35 05:15 11.42
19 532 BOUYARD FRÉDÉRIC - ADH 7 00:32:39 05:16 11.39
20 512 LEFEVRE RÉGIS RTT ADH 8 00:32:49 05:18 11.34
21 553 MOREAU DENIS - ADH 9 00:33:54 05:28 10.97
22 566 WAROQUIEZ LOÏC BAILEUX CAD G 4 00:34:01 05:29 10.94
23 556 VANDESTEENE ANTOINE JACO CAD G 5 00:34:07 05:30 10.90
24 554 LEGRAND SYLVIANE JACO MF 1 00:34:32 05:34 10.77
25 539 BOURLARD FRÉDÉRIC JACO ADH 10 00:35:40 05:45 10.43
26 514 MARONET BRUNO LA THURE ADH 11 00:35:46 05:46 10.40
27 540 GRAVIER VINCENT CCSTC ADH 12 00:37:00 05:58 10.05
28 518 RENS KEEVIN H&K TEAM ADH 13 00:37:28 06:03 9.93
29 506 DÉTHIÈRE CHRISTIAN - MH 4 00:37:38 06:04 9.88
30 524 VAN BELLE MANON - ADF 3 00:37:45 06:05 9.85
31 564 THOMAS EDDY - ADH 14 00:37:58 06:07 9.80
32 502 CLIP AUDREY RUNNING TRAIL THIÉRACHE RTT ADF 4 00:38:44 06:15 9.60
33 548 PAGE VALENTINE JACO CAD F 1 00:38:57 06:17 9.55
34 520 DRANCOURT JEAN-MICHEL - MH 5 00:38:59 06:17 9.54
35 561 MEERTENS RENÉ JACO ADH 15 00:39:06 06:18 9.51
36 537 BIOT ALEX JTRR MH 6 00:39:09 06:19 9.50
37 550 THOMAS MARIE-LISE - MF 2 00:39:13 06:20 9.49
38 521 DRANCOURT MONIQUE - MF 3 00:39:41 06:24 9.37
39 528 LAFFINEUR KÉVIN LA THURE ADH 16 00:39:48 06:25 9.35
40 535 MACQ VÉRONIQUE - ADF 5 00:40:47 06:35 9.12
41 501 BRASSEUR REMY - MH 7 00:41:20 06:40 9.00
42 529 MINETTE ANNE-SOPHIE TRAILERS DES FAGNES ADF 6 00:41:49 06:45 8.90
43 517 PREVOT CÉDRIC JACO ADH 17 00:42:02 06:47 8.85
44 531 SEPTON MARIE-EMILIE LA THURE MF 4 00:42:08 06:48 8.83
45 510 JULIEN ETHAN - CAD G 6 00:42:11 06:48 8.82
46 509 JULIEN ARNAUD 814 ADH 18 00:42:11 06:48 8.82
47 536 FIORE SYLVIE RUNNING TRAIL THIERACHE ADF 7 00:42:11 06:48 8.82
48 563 MEERTENS MORGANE LA THURE ADF 8 00:44:17 07:09 8.40
49 543 DEWULF ARIANE - ADF 9 00:44:26 07:10 8.37
50 534 KOCUREK PHILIPPE JACO MH 8 00:44:51 07:14 8.29
51 547 MARCELLE FABIENNE JACO MF 5 00:45:02 07:16 8.26
52 555 VANDESTEENE JULIEN - XXX   00:46:04 07:26 8.08
53 549 DARDENNE AUDE LA THURE ADF 10 00:46:11 07:27 8.05
54 503 DAUSSY THIERRY - MH 9 00:46:14 07:27 8.05
55 565 VERSAEVEL AURELIE - ADF 11 00:46:33 07:30 7.99
56 519 ELOY JEAN-CLAUDE LA THURE MH 10 00:49:14 07:56 7.56
57 560 ROUSSEAUX FLORENCE LA THURE ADF 12 00:53:17 08:36 6.98
58 545 TORFS CHRISTINE LA THURE MF 6 00;53:18 #VALEUR! #VALEUR!
59 527 LAFFINEUR CHRISTIAN LA THURE MH 11 00;54:03 #VALEUR! #VALEUR!
60 516 PIERRARD CHRISTELLE KINESPORT ADF 13 00:55:53 09:01 6.66
61 507 DROMELET BÉNÉDICTE JCPMF ADF 14 00:55:56 09:01 6.65
62 544 GOBERT FRANÇOISE LA THURE MF 7 00:57:21 09:15 6.49
                 
Nos dernières videos